Location: Larkspur
(54.4391°N, 113.7691°W)
Time: 00:41:22
(UTC+00:00)

YUBILEINY - Pass Details

Date: 06 December 2023
Orbit: 1479 x 1508 km, 82.5° (Epoch: 03 March)

Event Time Altitude Azimuth Distance (km) Brightness Sun altitude
Rises 14:27:18 0° 120° (ESE) 4,639 ? -9.8°
Reaches altitude 10° 14:31:37 10° 100° (E) 3,659 ? -9.2°
Maximum altitude 14:36:22 16° 67° (ENE) 3,198 ? -8.6°
Drops below altitude 10° 14:41:06 10° 34° (NNE) 3,658 ? -8.0°
Sets 14:45:23 0° 15° (NNE) 4,637 ? -7.4°
